Tracking 26321 objects as of 27-Nov-2022
HD Live streaming from Space Station
objects crossing your sky now

STARLINK-4592

Track STARLINK-4592 now!
10-day predictions
STARLINK-4592 is classified as:


NORAD ID: 53634
Int'l Code: 2022-104AY
Perigee: 545.8 km
Apogee: 547.8 km
Inclination: 53.2 °
Period: 95.4 minutes
Semi major axis: 6917 km
RCS: Unknown
Launch date: August 28, 2022
Source: United States (US)
Launch site: AIR FORCE EASTERN TEST RANGE (AFETR)
aabbcc
Your satellite tracking list
Your tracking list is empty




NASA's NSSDC Master Catalog

Two Line Element Set (TLE):
1 53634U 22104AY  22330.91667824  .00013065  00000-0  83706-3 0  9995
2 53634  53.2117 205.5196 0001471  60.0942 262.9401 15.08857123  1302
Source of the keplerian elements: AFSPC